Theta_e
295 295 295 295 295 295 294 294 294 293 293 293 293 293 293 293 293 293 293 293 293 292 292 292 291 291 290 289 289 289 289 289 289 289 289 289 290 290 290 290 290 290 290 290 290 291 291 290 291 291 291 291 291 291 292 292 292 292 292 292 292 292 292 293 293 293 293 293 294 294 294 294 294 294 294 294 293 293 293 293 293 293 294 294 294 294
294 294 294 294 294 294 294 294 293 293 293 292 293 293 293 293 293 293 292 292 292 292 291 290 290 289 289 288 288 288 288 289 289 289 289 289 289 290 290 290 290 290 290 290 290 290 290 290 290 291 291 291 291 291 291 292 292 292 292 292 292 292 292 292 292 292 292 293 293 293 293 293 293 293 293 292 293 293 293 293 293 293 293 293 294 294
293 293 293 293 293 293 293 292 292 292 292 292 292 292 292 292 292 292 292 292 291 290 289 289 288 288 288 288 287 287 288 288 289 289 289 289 289 289 289 289 289 289 289 289 289 290 290 290 290 291 291 291 291 291 291 291 291 291 292 292 292 292 292 292 292 292 292 292 292 292 292 292 292 292 292 292 292 292 292 293 293 293 293 293 293 293
292 292 292 292 292 292 292 292 292 292 292 292 292 292 292 292 292 291 291 290 290 289 288 288 288 288 288 287 287 287 287 288 288 288 289 289 289 288 288 288 288 288 288 289 289 289 290 290 290 290 291 291 291 291 291 291 291 291 291 291 291 291 291 291 291 291 291 291 291 291 291 291 291 291 292 292 292 292 292 292 292 292 293 293 293 293
291 291 291 291 291 291 291 291 291 291 291 291 291 291 291 291 291 290 290 289 288 288 288 288 288 288 287 287 287 287 287 287 288 288 288 288 287 287 287 287 287 288 288 289 289 289 290 290 290 290 290 291 291 291 291 291 291 291 291 291 291 291 292 292 292 292 292 292 292 292 292 291 291 291 291 291 291 292 292 292 292 292 292 292 292 292
290 291 291 291 291 291 291 291 291 291 291 291 291 290 290 290 290 289 289 288 288 288 288 288 288 287 287 287 287 287 287 287 287 287 287 286 286 286 286 287 287 288 288 289 289 289 290 290 290 290 290 291 291 291 291 291 291 291 291 291 290 291 291 291 291 291 291 291 291 291 291 291 291 291 291 291 291 291 291 291 291 291 291 292 292 292
290 290 291 291 291 291 291 291 291 291 290 290 290 290 290 289 289 288 288 288 288 288 288 287 287 287 287 287 287 287 287 286 286 286 285 285 285 285 286 287 287 288 288 289 289 289 290 290 290 290 290 290 290 290 290 290 290 289 289 289 289 289 289 290 290 290 290 290 290 290 290 290 290 290 290 290 290 290 290 291 291 291 291 291 291 292
290 290 291 291 291 290 290 290 290 290 290 290 289 289 289 289 289 288 288 288 288 288 287 288 287 287 287 287 287 286 286 286 286 285 285 284 284 284 285 286 287 288 288 288 289 289 289 289 289 290 290 289 289 289 289 289 288 288 288 288 288 288 289 289 289 289 289 290 290 290 290 290 290 290 290 290 290 290 290 290 290 290 291 291 291 291
290 290 290 290 290 290 290 290 290 290 289 289 289 289 289 288 288 288 288 288 288 288 288 288 287 287 287 287 286 286 286 286 285 285 284 284 284 284 285 286 286 287 287 288 288 288 288 288 288 288 288 288 288 288 288 288 288 288 288 288 288 288 288 288 288 289 289 289 289 289 290 290 290 290 290 290 290 290 290 290 290 290 290 290 291 291
291 290 290 290 290 290 289 289 289 289 289 289 288 288 288 288 288 288 288 288 288 288 288 287 287 287 287 286 286 286 286 285 285 284 284 284 284 285 285 285 286 286 286 286 286 287 287 287 287 287 287 287 287 287 287 287 287 287 287 287 287 287 287 288 288 288 289 289 289 289 289 289 289 290 290 290 290 290 290 290 290 290 290 290 290 291
290 290 290 290 289 289 289 289 289 289 288 288 288 288 288 288 288 288 288 288 288 288 287 287 287 287 286 286 286 286 285 285 284 284 283 284 284 285 285 285 285 285 285 285 285 286 286 286 286 286 286 286 286 286 286 286 286 286 286 286 287 287 287 287 288 288 288 289 289 289 289 289 289 290 290 290 290 290 290 290 290 290 290 290 290 290
290 290 290 289 289 289 289 289 289 288 288 288 288 288 288 288 288 288 288 288 288 287 287 287 286 286 286 285 285 285 285 284 284 283 283 283 284 284 285 285 285 285 285 285 285 285 285 285 285 285 285 285 285 285 285 285 285 285 285 286 286 287 287 288 288 288 289 289 289 289 289 289 290 290 290 290 290 290 290 290 290 290 290 290 290 290
290 290 290 289 289 289 289 289 289 288 288 288 288 288 288 288 288 288 288 287 287 287 286 286 286 285 285 285 285 284 284 283 283 283 283 283 284 284 284 284 285 285 285 285 285 285 285 285 285 284 285 285 284 284 284 284 284 285 285 286 287 287 288 288 288 288 289 289 289 289 289 289 290 290 290 290 290 290 290 290 290 290 290 290 290 290
290 290 289 289 289 289 289 289 289 288 288 288 288 288 288 288 288 287 287 287 286 286 286 285 285 285 285 285 284 284 283 283 283 283 283 284 284 284 284 284 284 284 284 284 284 284 284 284 284 284 284 284 284 284 284 285 285 285 286 286 287 287 288 288 288 288 289 289 289 289 289 289 289 290 290 290 290 290 290 290 290 290 290 290 290 290
289 289 289 289 289 289 289 289 289 289 289 288 288 288 288 288 287 287 286 286 286 285 285 285 285 285 285 284 284 284 283 283 283 283 283 284 284 284 284 284 284 284 284 284 284 284 284 284 284 284 284 284 284 284 284 285 285 286 286 287 287 288 288 288 288 288 289 289 289 289 289 289 289 290 290 290 290 290 290 290 290 290 290 290 290 290
289 289 289 289 289 289 289 289 289 288 288 288 287 287 287 287 286 286 286 285 285 285 285 284 284 284 284 284 284 283 283 283 283 283 284 284 284 284 284 284 284 284 284 284 284 284 284 284 284 284 284 284 284 284 284 285 286 286 287 287 287 287 288 288 288 288 288 289 289 289 289 289 289 289 289 289 289 289 289 290 290 290 290 290 290 290
289 289 289 289 289 289 289 288 288 287 287 287 287 286 286 286 286 285 285 285 285 284 284 284 284 284 284 284 284 283 283 283 283 283 284 283 284 284 283 283 283 283 284 284 284 284 284 284 284 284 284 284 284 284 284 285 285 286 286 287 287 287 287 288 288 288 288 288 288 289 289 289 289 289 289 289 289 289 289 289 289 289 290 290 290 290
289 289 289 289 289 288 288 287 287 287 287 286 286 286 286 285 285 285 285 284 284 284 284 284 284 283 283 283 283 283 283 283 283 283 283 283 283 283 283 283 283 283 284 284 284 284 284 284 284 284 284 284 284 284 284 284 285 286 286 287 287 287 287 287 288 288 288 288 288 288 288 288 288 289 289 289 289 289 289 289 290 290 290 290 290 290
288 288 288 288 288 287 287 287 287 286 286 286 286 285 285 285 285 284 284 284 284 284 284 283 283 283 283 283 283 283 283 283 283 283 282 282 282 283 283 283 283 283 283 283 283 283 283 283 283 283 283 283 284 284 284 284 285 285 286 286 287 287 287 287 287 288 288 288 288 288 288 288 288 288 289 289 289 289 289 289 289 289 290 290 290 290
287 287 287 287 286 286 286 286 286 286 286 285 285 285 285 285 285 284 284 284 284 284 283 283 283 283 283 283 283 283 283 283 282 282 282 282 282 282 283 283 283 283 283 283 283 283 283 283 283 283 283 284 284 284 284 284 285 285 286 286 287 287 287 287 287 287 287 288 288 288 288 288 288 288 289 289 289 289 289 289 289 289 289 289 289 289
287 286 286 286 286 286 286 286 285 285 285 285 285 285 285 285 284 284 284 284 284 283 283 283 283 283 283 283 283 283 282 282 282 282 282 282 282 282 283 283 283 283 283 283 283 283 283 283 283 283 283 284 284 284 284 284 285 285 286 286 286 287 287 287 287 287 287 287 287 288 288 288 288 288 288 288 288 288 288 288 288 288 288 289 289 289
286 286 286 286 286 285 285 285 285 285 285 285 285 285 285 284 284 284 284 284 283 283 283 283 283 283 282 282 282 282 282 282 282 282 282 282 282 282 283 282 282 282 282 282 283 283 283 283 283 283 283 284 284 284 284 284 284 285 285 286 286 286 286 286 287 287 287 287 287 287 287 287 287 287 287 288 288 288 288 288 288 288 288 288 289 289
286 285 285 285 285 285 285 285 285 285 285 285 285 285 285 284 284 284 284 284 283 283 283 283 283 283 282 282 282 282 282 282 282 281 282 282 282 282 282 282 282 282 282 282 282 282 283 283 283 283 284 284 284 284 284 284 284 285 285 286 286 286 286 286 286 286 286 286 286 286 286 286 287 287 287 287 287 287 288 288 288 288 288 288 289 289
285 285 285 285 285 285 285 285 285 285 285 285 285 285 285 284 284 284 284 284 283 283 283 283 283 282 282 282 282 282 282 282 281 281 282 282 282 282 282 282 282 282 282 282 282 282 282 283 283 283 284 284 284 283 283 284 284 285 285 285 285 286 286 286 285 285 285 285 285 286 286 286 286 286 287 287 287 287 287 288 288 288 288 288 288 288
285 284 284 284 285 285 285 285 285 285 285 285 285 285 284 284 284 284 284 283 283 283 283 283 282 282 282 282 281 281 281 281 281 281 281 282 282 282 282 282 282 281 281 281 282 282 282 283 283 284 284 284 283 283 283 283 284 284 285 285 285 285 285 285 285 285 285 285 285 285 285 286 286 286 286 287 287 287 287 287 287 287 288 288 288 288
284 284 284 284 284 284 285 285 285 285 285 285 285 284 284 284 284 284 283 283 283 283 283 283 282 282 282 281 281 281 281 281 281 281 281 281 281 281 281 281 281 281 281 281 281 281 282 282 283 283 283 283 283 283 283 283 283 284 284 284 284 284 284 283 283 284 284 284 285 285 285 285 286 286 286 286 286 287 287 287 287 287 287 287 287 287
283 283 283 283 284 284 284 284 284 284 284 284 285 284 284 284 284 284 284 283 283 283 283 282 282 282 282 281 281 281 281 281 281 281 281 281 281 281 281 281 281 281 281 281 281 281 281 282 283 283 283 283 283 283 283 283 283 283 283 283 283 283 283 283 283 283 283 284 284 284 285 285 285 285 286 286 286 286 286 286 286 286 286 287 287 287
283 282 282 282 282 282 283 283 283 283 283 283 284 284 284 284 284 283 283 283 283 283 283 282 282 282 282 281 281 281 280 280 281 281 281 281 281 281 281 281 281 280 280 280 280 281 281 282 282 283 283 283 283 283 283 283 283 283 283 283 283 283 283 283 283 283 283 283 284 284 284 285 285 285 285 285 285 286 286 286 286 286 286 286 286 286
282 282 282 282 282 282 282 281 281 282 282 282 283 283 283 283 283 283 283 282 282 282 282 282 282 282 281 281 281 281 280 280 281 281 281 281 281 281 281 280 280 280 280 280 280 281 281 282 282 282 282 282 282 282 282 282 283 283 283 283 283 283 283 283 283 283 283 283 283 283 284 284 284 284 285 285 285 285 285 285 285 285 285 285 285 285
281 281 281 281 281 281 281 281 281 281 281 282 282 282 283 283 282 282 282 282 282 282 282 282 281 281 281 281 280 280 280 281 281 281 281 280 280 280 280 280 280 280 279 279 280 280 281 282 282 282 282 282 282 282 282 282 282 282 282 282 282 282 282 282 282 282 282 283 283 283 283 283 283 284 284 284 284 284 284 285 285 285 285 285 285 284
280 280 280 280 281 281 281 281 281 281 281 281 282 282 282 282 282 282 282 282 282 282 281 281 281 281 281 281 280 280 280 281 281 280 280 280 280 280 280 280 280 279 279 279 279 280 280 281 281 282 282 281 281 281 281 281 281 281 282 282 282 282 282 282 282 282 282 282 282 283 283 283 283 283 283 283 283 284 284 284 285 285 285 284 284 284
280 280 280 280 280 281 281 281 281 281 281 282 282 282 282 282 282 282 282 282 281 281 281 281 281 281 281 280 280 280 280 280 280 280 280 280 280 280 280 279 279 279 279 279 279 279 279 280 280 281 281 280 280 280 280 281 281 281 281 281 281 282 282 282 282 282 282 282 282 283 283 283 283 283 283 283 283 283 283 284 284 284 284 284 284 284
280 280 280 280 280 281 281 281 281 281 282 282 282 282 282 282 282 281 281 281 281 281 281 281 281 280 280 280 280 280 280 280 280 280 280 280 280 280 279 279 279 279 279 279 279 279 279 279 280 280 280 280 280 280 280 281 281 281 281 281 281 281 282 282 282 282 282 282 282 282 283 283 283 283 283 283 283 283 283 283 284 284 284 285 285 285
280 279 279 280 280 281 281 281 281 281 281 281 282 281 281 281 281 281 281 281 281 281 281 280 280 280 280 280 280 280 280 279 279 280 280 280 279 279 279 279 279 279 279 279 279 279 279 279 279 279 280 280 280 280 280 281 281 281 281 281 281 281 281 282 282 282 282 282 282 282 283 283 283 283 283 283 283 283 283 283 284 284 285 285 285 285
279 279 280 280 280 281 281 281 281 281 281 281 281 281 281 281 281 281 281 281 280 280 280 280 280 280 280 280 280 279 279 279 279 279 279 279 279 279 279 279 279 279 279 279 279 279 279 279 279 279 280 280 280 280 281 281 281 281 281 281 281 281 281 281 281 282 282 282 282 282 283 283 283 283 283 283 283 283 283 283 284 284 284 284 285 285
279 279 280 280 280 281 281 281 281 281 281 281 281 281 281 281 280 280 280 280 280 280 280 280 280 280 279 279 279 279 279 279 279 279 279 278 278 278 279 279 279 279 279 279 279 279 279 279 279 279 280 280 280 280 281 281 281 281 281 281 281 281 281 281 281 282 282 282 282 282 282 282 283 283 283 283 283 283 283 283 283 283 283 283 284 284
279 279 280 280 280 280 280 280 280 281 281 281 281 280 280 280 280 280 280 280 280 280 280 279 279 279 279 279 279 279 279 278 278 278 278 278 278 278 278 278 279 279 279 279 279 279 279 279 279 279 279 280 280 280 280 281 281 281 281 281 281 281 281 281 281 282 282 282 282 282 282 282 282 282 283 283 283 283 283 283 283 283 283 283 283 283
279 279 280 280 280 280 280 280 280 280 280 280 280 280 280 280 280 280 280 280 279 279 279 279 279 279 279 279 279 279 278 278 278 278 278 279 279 279 279 279 279 279 279 279 279 279 279 279 279 279 279 280 280 280 280 280 280 280 281 281 281 281 281 281 282 282 282 282 282 282 282 282 282 282 282 282 282 283 283 283 283 283 283 283 283 283
279 280 280 279 279 279 279 279 279 279 280 280 280 280 280 280 280 279 279 279 279 279 279 279 279 279 279 279 279 279 279 279 279 279 279 279 279 279 279 279 279 279 279 279 279 279 279 279 279 279 280 280 280 280 280 280 280 280 281 281 281 281 282 282 282 282 282 282 282 282 282 282 282 282 282 282 282 282 282 282 283 283 283 283 283 283
279 279 279 279 279 279 279 279 279 279 279 279 279 279 279 279 279 279 279 279 279 279 279 279 279 279 279 279 279 279 279 279 279 279 279 279 279 279 279 279 279 279 279 279 279 279 279 279 279 279 280 280 280 280 280 280 280 281 281 281 281 282 282 282 282 282 282 282 282 282 282 282 282 282 282 282 282 282 282 282 282 282 282 282 282 282
279 279 279 279 279 279 279 279 279 279 279 279 279 279 279 279 279 279 279 279 279 279 279 279 279 279 279 279 279 279 279 279 279 279 279 279 279 279 279 279 279 279 279 279 279 279 279 279 279 279 280 280 280 280 280 280 281 281 281 281 281 281 281 282 282 282 282 282 282 282 282 282 282 282 282 282 282 282 282 282 282 282 282 282 282 282
279 279 279 279 279 279 279 278 278 278 278 278 278 278 278 278 278 278 278 279 279 279 279 279 279 279 279 279 279 279 280 279 280 280 280 279 279 279 279 279 280 280 280 279 279 279 279 279 279 280 280 280 280 280 280 280 281 281 281 281 281 281 281 281 282 282 282 282 282 282 282 282 282 282 282 282 282 282 282 282 282 282 282 282 282 282
279 279 279 279 279 279 278 278 278 278 278 278 278 278 278 278 278 278 278 279 279 279 279 279 279 279 279 279 279 279 279 280 280 280 280 280 279 279 279 280 280 280 280 280 279 279 279 279 280 280 280 280 280 280 280 281 281 281 281 281 281 281 281 281 281 281 282 282 282 282 282 282 282 282 282 282 282 282 282 282 282 282 282 282 282 282
279 279 279 279 279 278 278 278 278 278 278 278 278 278 278 278 278 278 279 279 279 279 279 279 279 279 279 279 279 279 279 279 280 280 280 280 280 280 280 280 280 280 280 280 280 279 280 280 280 280 280 280 280 280 280 281 281 281 281 281 281 281 281 281 281 281 281 281 281 282 282 282 282 282 282 282 282 282 282 282 282 282 282 282 282 282
279 279 279 279 279 279 279 278 278 277 278 278 278 278 278 278 278 279 279 279 279 279 279 279 279 279 279 279 279 279 279 279 279 279 280 280 280 280 280 280 280 280 280 280 280 280 280 280 280 280 280 280 280 280 280 281 281 281 281 281 281 281 281 281 281 281 281 281 281 281 282 282 282 282 282 282 282 282 282 282 282 282 282 282 283 283
279 279 279 278 278 278 278 277 277 277 277 278 278 278 278 278 279 279 279 279 279 279 280 280 280 280 280 280 279 279 279 279 279 279 279 280 280 280 280 280 280 281 281 281 281 281 280 280 280 280 280 280 280 280 281 281 281 281 281 281 281 281 281 281 281 281 281 281 281 281 282 282 282 282 282 282 282 282 282 282 282 283 283 283 283 283
278 278 278 278 278 277 277 277 277 277 277 277 278 278 278 278 279 279 279 279 279 280 280 280 280 280 280 279 279 279 279 279 279 279 280 280 280 280 280 280 281 281 281 281 281 281 281 281 281 280 280 280 280 281 281 281 281 281 281 281 281 281 281 281 281 281 281 281 282 282 282 282 282 282 282 282 282 282 282 283 283 283 283 283 283 283
278 278 278 277 277 277 277 277 277 277 277 277 278 278 278 278 279 279 279 279 279 280 280 280 280 280 279 279 279 279 279 279 279 280 280 280 280 280 280 280 281 281 281 281 281 281 281 281 281 281 281 280 280 281 281 281 281 281 281 281 281 281 281 281 281 281 282 282 282 282 282 282 282 282 282 282 282 283 283 283 283 283 283 283 283 283
277 277 277 277 277 277 277 277 277 277 277 277 277 277 278 278 278 279 279 279 279 279 279 279 279 279 279 279 279 279 279 279 280 280 280 280 280 280 280 280 280 281 281 281 281 281 281 281 281 281 281 281 281 281 281 281 281 281 281 281 281 281 281 282 282 282 282 282 282 282 282 282 282 282 283 283 283 283 283 283 283 283 283 283 283 283
277 276 276 276 276 276 276 276 276 277 277 277 277 277 278 278 278 278 279 279 279 279 279 279 279 279 279 279 279 279 279 280 280 280 280 280 280 280 280 280 281 281 281 281 281 281 281 281 281 281 281 281 281 281 281 281 281 281 281 281 281 282 282 282 282 282 282 282 282 282 282 283 283 283 283 283 283 283 283 283 283 282 282 282 282 282
276 276 276 276 276 276 276 276 276 277 277 277 277 278 278 278 278 279 279 279 279 279 279 279 279 279 279 279 279 279 280 280 280 280 280 280 280 280 280 280 280 280 280 281 281 281 281 281 281 281 281 281 282 282 282 282 281 281 281 281 282 282 282 282 282 282 282 282 282 282 282 283 283 283 283 283 283 282 282 282 282 282 282 282 282 282
Wind_Speed
7 9 12 15 17 18 19 21 23 23 23 23 24 24 24 24 24 24 23 21 18 15 13 10 8 6 5 4 5 5 6 7 8 9 11 12 13 12 12 12 11 11 11 11 11 11 11 11 11 11 11 11 11 11 11 11 11 11 11 11 11 11 11 11 11 11 11 11 12 12 12 13 13 13 13 13 13 13 13 13 14 14 14 15 15 15
7 8 10 12 14 15 17 19 20 20 21 21 22 22 22 22 21 20 18 16 13 10 8 6 4 3 4 5 6 6 6 7 9 11 12 12 12 12 12 11 11 11 11 11 11 11 11 11 11 10 10 10 10 10 10 10 10 10 10 10 10 10 10 11 11 11 11 12 12 12 13 13 13 14 14 14 14 14 14 14 14 14 14 15 15 15
7 8 9 10 11 12 14 15 15 16 16 17 17 17 17 16 16 14 12 9 7 5 4 3 3 4 5 6 7 6 7 9 10 11 11 11 11 11 11 11 11 11 11 11 11 10 10 10 9 9 9 9 9 9 9 9 9 9 9 9 10 10 10 11 11 11 12 12 12 13 13 13 13 14 14 14 14 14 14 14 14 14 14 14 14 15
8 8 9 9 10 11 11 12 11 11 12 12 12 12 11 11 10 8 6 4 3 2 2 3 4 5 6 6 6 7 8 10 10 10 10 11 11 11 11 11 11 11 11 10 10 10 9 9 8 8 8 8 8 8 8 8 8 9 9 9 10 10 10 11 11 12 12 12 13 13 13 13 13 13 14 14 14 14 14 14 14 14 14 14 14 15
7 7 7 8 8 8 9 9 8 8 8 8 8 7 7 6 5 4 3 2 2 2 3 4 5 6 6 7 7 8 9 10 10 10 10 10 11 11 11 11 11 11 10 10 9 9 8 8 8 8 8 8 8 8 8 8 8 8 9 9 9 10 10 10 11 11 12 12 13 13 13 13 13 14 14 14 14 14 14 14 14 14 15 15 15 15
6 5 6 6 6 6 6 6 6 5 5 5 5 4 4 3 3 2 2 2 3 3 4 5 6 6 7 8 9 10 10 10 10 10 10 11 11 12 11 11 11 10 9 9 9 8 8 8 8 7 7 7 7 7 8 8 8 8 8 9 9 9 10 10 11 11 11 12 12 13 13 13 13 14 14 14 14 14 14 14 15 15 15 15 15 15
5 5 4 4 4 3 3 3 3 3 3 3 3 3 3 2 2 2 2 3 4 5 5 6 7 8 9 9 10 10 10 11 11 11 12 13 13 12 11 10 10 9 9 8 8 8 8 7 7 7 7 7 7 7 8 8 8 8 9 9 9 10 10 10 11 11 12 12 12 13 13 13 13 14 14 14 14 14 14 14 14 14 15 15 15 15
5 4 3 3 2 2 2 2 2 2 2 3 2 2 2 1 2 3 4 5 5 6 7 8 9 9 9 9 9 10 10 11 12 13 13 13 13 11 9 9 9 8 8 7 7 7 7 7 7 6 7 7 7 8 8 8 9 9 9 10 10 10 11 11 11 12 12 12 12 13 13 13 13 13 13 13 14 14 14 14 14 14 15 15 15 16
6 5 4 3 3 2 2 3 3 3 2 1 1 1 2 3 4 5 6 7 7 8 9 9 9 9 9 8 9 10 11 12 12 13 13 13 11 10 8 8 7 7 6 6 6 6 6 6 6 6 7 7 8 9 9 9 9 10 10 10 10 11 11 11 11 11 12 12 12 12 12 12 13 13 13 13 13 13 14 14 14 14 15 15 16 16
5 5 4 3 3 3 2 2 1 1 0 0 1 2 3 5 6 7 7 8 8 9 9 9 8 7 8 8 9 10 11 12 13 13 13 12 10 9 8 8 7 6 6 6 6 6 6 6 7 7 8 9 9 9 10 10 10 10 10 10 10 10 11 11 11 11 11 11 11 12 12 12 12 12 13 13 13 13 14 14 15 15 15 16 16 17
5 4 3 3 2 2 1 1 1 1 2 2 3 4 5 6 7 7 8 8 8 8 8 7 7 7 7 9 10 11 12 13 13 13 12 11 10 8 8 8 8 8 7 8 8 8 8 9 9 9 10 10 10 10 11 11 11 11 10 10 10 10 10 10 10 11 11 11 11 11 12 12 12 13 13 13 14 14 14 15 15 16 16 16 17 17
4 3 2 2 1 1 0 1 1 2 3 4 5 6 7 8 8 8 8 8 8 7 6 6 7 7 8 9 10 11 12 13 13 13 12 11 10 9 9 9 9 9 9 10 10 11 11 11 11 11 11 11 12 11 11 11 10 10 9 9 9 9 9 10 10 10 11 11 11 12 12 12 13 13 14 14 14 15 15 16 16 17 17 17 18 18
2 2 1 1 1 2 2 2 3 3 4 5 6 7 7 8 8 8 7 7 6 5 5 6 7 8 9 9 10 11 12 12 13 13 13 12 11 11 11 10 10 10 10 11 11 11 10 10 10 10 10 10 10 10 9 9 8 8 7 8 8 9 9 10 10 11 11 11 12 12 13 13 14 14 14 15 15 16 16 17 17 17 18 18 18 19
0 1 1 1 2 2 3 4 4 5 6 6 7 7 7 7 7 6 5 5 4 5 6 6 7 8 9 10 10 11 11 12 13 13 14 13 13 13 12 12 12 11 11 10 9 8 7 7 7 7 7 7 7 7 7 6 6 6 7 8 9 10 10 10 11 11 12 12 12 13 13 13 14 14 15 15 16 16 16 17 17 17 18 18 19 19
2 2 3 3 4 4 4 5 6 6 7 7 7 7 7 6 5 5 4 4 4 5 5 6 7 8 9 9 9 9 11 11 13 14 15 16 15 14 14 14 13 12 10 9 7 5 4 4 4 4 4 4 5 5 5 5 6 7 8 9 10 10 11 11 11 12 12 12 13 13 13 14 14 15 15 15 16 16 16 17 17 17 18 18 18 19
2 3 4 5 5 6 6 6 6 6 6 5 5 5 5 4 4 4 4 3 4 5 5 6 8 8 8 8 8 9 10 11 13 14 16 17 17 15 14 14 14 12 10 8 7 6 4 4 4 4 4 5 5 5 5 6 8 9 10 10 11 11 11 11 12 12 12 13 13 14 14 14 15 15 15 16 16 16 17 17 17 17 18 18 18 19
4 4 5 7 7 6 6 5 4 4 3 3 3 3 3 3 3 4 4 4 4 5 6 6 6 6 7 8 9 9 10 11 13 16 18 18 18 16 15 14 14 13 11 9 8 7 7 6 6 6 6 6 6 7 7 8 9 10 10 11 11 11 12 12 12 12 13 13 14 14 14 15 15 15 16 16 16 16 16 17 17 17 18 18 19 19
4 5 5 6 6 4 4 3 3 2 2 2 3 3 4 4 4 4 4 4 5 5 5 6 6 6 6 8 8 9 11 13 15 17 19 19 18 17 15 14 13 13 12 11 10 9 9 9 9 9 9 9 9 9 9 9 10 10 11 11 11 12 12 12 13 13 13 14 14 14 14 15 15 15 15 16 16 16 16 16 17 17 18 18 18 19
2 2 2 2 1 1 2 1 1 1 1 1 2 2 3 3 4 4 4 5 5 6 6 6 7 8 9 10 11 12 13 14 16 18 18 18 18 17 15 13 13 13 13 12 12 11 11 11 11 11 11 11 11 10 10 9 10 10 11 11 12 12 12 13 13 13 13 13 14 14 14 14 15 15 15 15 15 16 16 16 17 17 18 18 19 19
1 1 1 0 0 0 1 1 1 1 1 2 2 3 3 4 5 5 6 6 7 8 8 8 9 10 11 12 13 14 15 15 16 17 16 16 17 16 13 12 12 13 14 14 13 13 13 13 12 12 12 12 11 11 10 10 10 11 11 12 12 12 12 12 13 13 13 13 13 13 14 14 14 15 15 15 16 16 16 17 17 18 18 18 19 19
1 1 1 1 1 1 1 2 2 3 3 4 4 5 5 6 6 7 8 8 8 9 9 9 10 11 12 13 14 15 15 15 15 15 14 14 14 13 12 11 12 13 15 15 15 14 14 14 14 13 13 12 12 11 10 10 10 11 11 11 11 12 12 12 12 12 12 12 13 13 13 14 14 15 15 16 16 17 17 17 18 18 18 18 19 19
0 0 1 2 2 2 3 3 4 5 6 6 6 6 7 7 7 8 8 9 9 9 9 10 11 12 13 13 14 15 15 13 13 13 12 11 12 12 11 11 12 14 16 16 16 16 15 15 15 14 14 13 12 11 9 9 10 10 11 11 11 11 11 11 11 12 12 13 13 14 14 15 15 15 16 16 17 17 17 17 17 18 18 18 18 19
2 3 3 4 4 4 5 6 6 7 7 7 7 7 8 8 8 8 8 8 9 9 10 10 11 12 13 13 14 14 13 11 10 10 9 8 9 11 11 12 14 16 17 17 17 17 17 17 17 16 15 13 11 9 8 9 9 10 10 10 10 10 10 11 12 13 13 14 14 14 15 15 15 15 16 16 16 16 16 17 17 17 17 18 18 18
3 4 4 5 6 6 7 7 7 8 8 8 8 8 8 8 8 8 8 9 9 9 10 11 12 12 13 13 13 13 11 9 9 8 7 7 9 11 13 14 16 17 18 18 18 19 20 20 19 17 14 12 9 8 7 8 8 9 9 9 9 10 11 12 13 14 14 14 15 14 14 14 14 15 15 15 15 15 16 16 16 17 17 17 18 18
4 4 5 5 6 7 7 8 8 8 8 9 9 9 9 8 8 9 9 9 9 10 11 11 12 13 12 12 11 11 10 9 8 8 7 7 10 12 13 14 15 16 18 19 20 21 22 22 20 16 12 9 7 5 5 6 7 7 8 8 10 11 13 14 15 15 14 14 14 14 14 14 14 14 14 14 14 15 15 16 16 16 17 17 18 19
3 4 5 5 6 6 7 7 7 7 8 8 9 9 9 9 9 10 10 10 10 10 10 11 11 12 12 11 11 10 10 10 9 8 8 8 9 12 13 14 15 16 19 21 22 22 22 22 19 14 9 6 4 4 4 5 6 7 8 10 12 14 15 15 15 14 13 13 13 13 13 13 13 13 14 14 14 15 15 16 16 17 17 18 19 19
5 5 6 6 6 6 6 7 7 7 7 7 8 8 9 9 9 9 10 10 9 9 9 9 10 10 11 10 10 10 11 11 10 9 8 9 9 10 12 13 15 17 20 22 23 22 20 19 16 11 7 4 3 3 4 5 7 9 11 13 15 16 16 14 13 12 12 12 12 12 13 13 13 14 14 14 14 15 15 16 16 17 17 18 19 19
9 9 9 8 8 8 8 8 8 8 7 7 7 7 8 9 9 9 10 9 9 9 9 9 9 9 9 9 10 12 13 12 10 8 8 8 8 9 11 13 15 17 19 20 21 21 17 14 11 8 5 3 3 4 6 8 10 12 14 16 16 15 14 13 12 11 11 12 12 13 13 13 14 14 14 14 14 14 15 15 16 17 17 18 18 19
12 12 11 10 9 8 9 9 9 8 7 7 7 7 8 8 9 10 10 9 9 9 9 9 9 9 9 10 12 13 13 11 8 7 7 8 9 10 12 13 14 15 17 18 18 17 14 10 8 5 3 4 5 7 9 12 14 16 16 16 14 13 12 12 12 12 12 13 13 13 13 14 14 14 14 14 14 15 15 15 16 16 17 17 18 19
13 12 11 9 8 7 7 7 8 8 7 7 7 7 7 8 8 9 9 9 9 9 9 9 9 9 9 10 10 10 9 6 4 5 7 9 9 10 12 12 12 13 14 14 13 11 10 9 6 3 4 6 9 12 14 16 17 17 16 15 14 13 13 13 14 14 14 14 14 14 14 14 13 14 14 14 14 15 15 15 15 16 16 17 18 19
14 13 10 7 6 5 5 6 6 6 6 6 6 7 7 7 8 8 8 8 8 8 8 9 9 9 9 8 5 4 4 3 4 6 8 10 10 10 11 11 11 12 12 10 8 6 6 7 5 4 6 10 14 17 19 19 18 17 16 15 15 15 15 15 15 15 16 15 15 15 14 14 14 14 14 14 14 14 15 15 15 16 16 17 18 19
15 14 11 8 6 5 5 6 6 6 6 6 6 6 6 6 6 7 7 7 7 7 8 8 9 9 9 9 7 5 6 7 7 8 9 10 10 11 11 10 11 11 11 9 7 5 3 6 8 11 14 16 18 19 19 18 17 16 16 16 16 17 17 17 17 17 18 17 17 16 15 15 15 15 15 15 15 15 15 15 15 15 16 17 18 19
16 14 11 8 6 5 6 6 6 6 6 5 5 5 5 5 6 6 6 6 6 7 7 8 9 10 11 11 11 11 12 11 10 9 9 10 10 10 10 10 11 11 11 10 9 8 8 10 14 17 19 18 18 17 17 17 16 15 15 16 17 18 19 19 19 19 19 19 18 17 17 16 16 16 16 16 16 16 16 15 14 14 15 16 17 19
16 13 10 7 6 6 6 6 6 6 5 4 4 4 5 5 5 6 6 6 7 7 8 8 9 10 11 11 12 13 13 12 10 9 8 9 10 10 11 11 11 11 11 11 10 10 12 14 16 17 18 19 18 17 16 16 16 15 15 16 18 19 20 20 21 21 20 20 19 19 18 18 18 18 18 18 18 17 17 16 15 15 15 16 18 19
15 11 8 6 5 6 6 6 5 5 4 4 4 4 5 5 6 7 7 8 8 9 9 9 10 11 11 12 12 12 12 12 10 9 9 10 11 11 12 11 10 10 10 10 10 10 11 14 15 16 17 19 19 18 16 15 15 16 17 18 19 20 21 21 21 21 21 20 20 20 20 20 20 20 20 20 19 19 17 17 16 16 17 17 18 19
12 9 6 5 5 5 5 5 5 5 4 4 5 5 6 7 7 8 9 10 10 11 11 12 12 12 13 13 13 14 14 14 12 11 11 11 12 12 12 11 11 10 10 11 11 11 12 13 15 16 16 17 18 18 18 17 17 18 19 20 20 21 21 21 20 20 20 20 20 21 21 21 22 22 22 21 20 19 18 18 19 19 19 19 19 19
10 7 6 5 6 6 5 5 5 5 5 6 6 7 7 8 9 10 11 11 12 12 12 12 12 12 13 13 14 15 15 15 14 13 13 12 13 13 13 13 12 12 11 12 12 12 13 13 15 15 15 15 15 17 19 20 21 21 21 21 21 21 21 20 19 18 19 19 20 21 22 22 22 22 22 22 21 21 21 21 21 21 21 20 20 19
7 6 6 6 6 6 6 6 6 6 7 7 8 9 10 10 11 11 12 12 12 12 11 11 11 11 11 12 13 14 14 14 14 14 13 13 13 14 15 15 14 14 13 13 13 14 13 13 13 13 13 15 16 18 20 21 22 22 22 22 22 21 20 19 18 18 18 19 21 22 22 22 22 22 23 23 23 23 24 24 23 23 22 22 21 21
6 6 6 6 6 6 6 6 7 7 8 9 10 11 11 12 12 12 12 12 12 11 11 11 11 11 11 12 12 12 13 13 13 13 13 13 13 14 15 16 16 15 15 15 15 15 14 14 13 12 13 15 17 19 20 20 21 22 23 23 23 21 19 18 18 18 19 20 22 22 22 22 22 22 23 23 24 24 24 25 24 24 23 23 24 24
6 6 6 6 6 6 7 7 8 8 9 10 11 12 13 13 13 13 12 11 10 10 10 10 11 11 11 11 11 12 12 12 12 12 11 11 11 12 14 15 16 16 16 16 16 16 15 15 15 16 16 16 17 19 20 20 21 21 21 21 21 21 20 20 20 20 21 21 21 22 22 22 22 23 23 23 23 24 24 24 24 24 24 24 24 25
6 6 7 7 7 7 7 8 9 10 11 12 13 13 13 12 11 10 10 9 9 8 8 9 10 11 11 11 11 11 11 11 11 10 10 10 10 10 11 13 14 15 16 16 16 16 16 16 17 17 17 18 19 20 21 21 21 20 20 20 21 22 23 23 22 21 20 20 20 21 22 22 23 23 23 23 24 24 24 24 25 25 25 24 24 24
6 7 7 8 8 8 8 9 9 10 11 12 13 12 11 11 10 10 9 10 10 10 10 11 12 14 15 15 14 12 11 11 10 10 9 9 9 10 11 12 13 14 15 16 17 17 17 17 17 18 18 18 19 19 20 21 21 20 19 20 21 23 24 22 20 19 19 20 21 22 22 23 23 24 24 24 25 25 25 25 25 25 24 24 24 23
7 8 8 8 8 8 8 9 10 11 12 12 12 11 10 9 9 9 10 11 11 12 12 13 14 15 16 16 15 14 13 12 10 9 9 9 9 10 10 11 12 13 15 16 17 17 17 17 17 18 18 18 19 20 21 22 22 21 20 20 20 20 19 20 20 20 20 21 21 22 22 23 23 24 25 25 25 25 25 25 25 24 24 24 24 24
8 8 8 8 8 8 9 10 11 12 12 12 11 10 9 8 8 9 10 11 12 12 12 13 14 15 15 15 15 15 14 12 11 10 9 9 9 10 10 11 12 12 14 16 17 17 18 18 18 18 18 18 19 20 21 22 22 22 21 20 20 19 19 21 22 22 21 21 21 21 22 23 24 25 25 25 25 25 25 25 25 25 25 25 25 25
8 8 8 8 8 9 10 11 12 13 12 11 10 9 8 8 8 9 10 11 12 12 13 13 14 13 13 13 14 14 14 13 12 11 10 10 10 10 10 11 12 12 13 15 17 18 18 18 19 19 19 19 19 20 20 21 22 22 22 21 20 20 21 22 22 22 22 22 22 22 23 23 24 24 24 24 25 25 25 25 25 25 25 25 24 24
8 7 8 8 9 10 11 12 13 13 12 11 9 9 8 8 8 9 10 11 12 13 13 13 12 12 12 13 14 15 15 14 14 14 13 12 11 11 11 11 12 13 14 16 17 18 20 20 21 21 20 19 20 20 21 21 21 21 22 21 20 20 21 21 21 21 21 21 22 22 23 23 23 23 23 24 25 25 25 24 23 24 24 24 23 23
7 8 8 9 10 11 12 13 13 12 11 10 10 9 8 8 9 10 10 11 12 13 13 13 12 12 12 13 14 15 15 15 16 15 15 14 14 13 13 13 13 14 15 16 18 19 20 22 22 22 21 20 20 21 21 21 21 21 21 21 21 20 21 21 21 21 21 21 22 23 24 24 23 23 23 24 24 24 24 23 22 22 22 22 22 22
8 8 9 10 11 12 13 13 12 12 11 11 10 9 9 9 9 11 11 12 12 13 13 12 12 13 14 14 14 14 15 15 15 16 16 16 15 15 15 14 14 15 16 17 18 19 21 22 22 23 23 22 21 21 22 21 21 20 21 21 20 21 21 22 22 21 21 21 22 23 24 23 22 22 23 23 24 24 23 23 22 22 22 22 22 23
8 9 9 10 11 11 12 12 12 11 11 11 11 11 10 10 10 10 11 12 13 13 13 13 13 14 14 14 15 15 15 15 16 16 16 16 16 16 15 15 15 15 16 17 17 18 19 20 20 21 21 22 22 22 23 22 21 21 20 20 20 20 21 22 22 22 21 22 22 23 23 22 22 21 22 21 22 23 23 23 23 23 22 23 23 24
8 9 9 10 10 11 12 12 12 11 11 11 11 11 11 11 11 11 12 12 13 13 13 13 14 14 14 15 15 15 15 15 16 16 16 16 15 15 14 15 15 15 15 16 16 15 16 16 17 17 17 19 20 22 23 23 23 22 21 20 20 20 21 21 22 22 21 21 21 21 21 21 20 20 20 20 21 22 24 24 24 24 24 23 24 24
9 9 10 10 10 11 11 11 11 11 11 11 11 11 12 12 12 13 13 13 13 13 14 14 14 14 14 15 15 15 15 15 15 16 16 16 15 15 14 14 15 15 15 15 14 14 13 13 13 14 16 15 16 18 20 22 22 22 21 21 21 20 20 21 22 22 21 21 20 20 20 20 19 19 19 19 21 22 24 24 24 24 24 23 23 24
Wind_Direction
201 210 219 225 228 230 234 238 239 238 239 240 241 244 248 254 258 261 263 264 263 260 254 248 243 244 255 275 292 298 296 294 294 291 286 283 281 281 283 284 285 285 283 282 281 280 278 277 276 277 277 277 277 277 278 278 278 278 279 279 279 280 280 280 281 281 281 282 282 282 282 280 278 277 279 283 283 283 282 283 283 281 280 281 281 281
202 213 218 226 229 230 232 239 240 239 239 241 243 246 249 252 255 257 258 258 255 251 246 243 251 275 301 317 324 319 299 287 282 281 280 281 282 284 286 288 289 289 288 288 286 285 283 280 279 279 279 278 278 278 278 277 278 278 279 280 280 281 282 282 282 282 282 282 282 282 281 280 280 280 280 281 281 280 281 280 280 280 280 279 279 280
190 199 206 214 219 219 221 228 233 235 236 239 242 244 245 245 246 248 248 248 246 244 248 268 296 312 319 321 322 314 290 277 277 279 282 284 286 288 290 292 292 292 291 290 289 288 286 285 283 281 281 281 280 280 279 279 279 280 281 281 282 282 283 283 283 283 282 281 281 280 280 279 279 279 279 280 280 280 279 280 280 280 280 280 280 280
186 188 195 201 206 209 214 219 224 228 231 235 238 240 240 239 238 237 235 230 232 249 278 303 312 313 313 310 308 300 284 277 278 282 285 288 291 293 295 296 296 295 294 292 291 290 289 287 286 284 284 284 285 285 285 284 284 284 285 285 285 285 284 284 283 281 280 279 278 277 277 276 277 277 278 278 279 279 280 280 281 282 282 282 282 282
184 186 193 195 197 203 215 220 223 224 226 228 229 230 228 224 218 210 199 203 237 275 293 301 302 301 300 298 294 290 284 282 282 285 288 291 295 298 299 299 298 297 295 294 292 291 291 290 289 287 286 287 289 289 290 292 292 292 292 292 291 291 289 287 285 282 280 278 277 275 275 275 275 276 277 277 278 279 280 281 282 283 283 284 284 283
178 186 195 194 196 204 216 222 224 222 219 215 210 206 199 191 183 183 196 228 261 279 288 289 288 287 286 286 285 284 282 281 282 284 287 291 295 298 300 301 300 298 297 297 295 294 292 292 290 289 290 291 293 296 298 300 300 300 300 298 297 295 292 289 287 284 282 280 279 277 276 276 276 277 277 278 279 280 281 282 282 282 283 283 284 284
169 180 191 192 197 206 214 216 212 205 196 186 175 171 171 175 190 217 244 262 271 276 277 275 274 275 278 280 280 280 279 278 279 283 287 292 295 298 300 302 304 304 303 302 302 300 299 297 295 295 296 297 300 301 302 302 300 299 298 295 293 291 288 286 284 283 281 280 279 279 278 278 278 278 279 279 280 281 281 282 283 283 283 283 284 284
150 160 165 164 163 159 157 161 161 158 157 154 152 157 172 214 249 263 270 272 270 268 265 267 269 273 276 277 276 276 276 279 283 288 293 298 300 301 302 306 309 309 310 310 310 308 307 306 304 302 302 302 302 302 301 299 297 295 293 291 290 288 285 284 282 281 280 280 280 279 279 279 279 279 280 280 281 282 282 283 283 283 283 283 284 284
136 135 132 122 111 106 109 121 131 134 134 138 150 220 266 274 275 275 272 265 262 262 266 270 274 275 274 272 271 273 277 282 288 294 300 303 304 304 306 308 309 310 312 315 317 316 312 310 307 304 303 303 302 301 300 298 296 294 291 289 287 286 285 284 283 282 282 282 281 281 280 280 280 280 280 281 281 282 282 282 283 283 283 283 283 283
129 124 121 111 103 93 82 83 101 122 113 293 285 282 278 273 271 268 262 258 260 266 272 276 276 273 268 267 269 274 280 286 292 298 302 301 301 300 298 296 294 295 301 307 309 308 305 304 303 303 304 303 302 300 297 295 293 290 288 287 286 285 285 285 284 284 283 283 282 281 280 280 280 280 280 280 281 281 281 281 282 282 282 282 282 283
120 122 123 120 114 97 66 30 348 303 288 280 272 267 265 265 263 261 258 260 266 272 276 275 270 265 264 267 273 279 286 293 299 303 303 299 293 287 283 280 278 280 286 288 289 289 290 292 295 298 299 297 295 293 291 288 286 285 284 285 285 285 286 286 285 285 284 283 282 281 281 280 280 280 280 280 279 280 280 280 280 281 281 280 281 281
121 128 137 145 157 172 221 285 279 275 270 262 255 253 256 261 265 267 265 268 273 276 272 266 262 263 268 275 283 290 296 302 307 310 308 302 294 287 282 277 275 277 280 280 280 282 284 284 286 287 288 286 285 283 283 281 279 278 280 283 286 287 288 287 286 285 284 283 282 281 281 280 280 280 280 279 279 279 279 279 279 279 279 280 280 280
137 154 177 197 217 235 252 261 265 264 261 257 254 256 263 271 275 276 275 276 274 268 259 257 261 268 276 284 292 299 305 310 313 314 312 308 304 299 294 289 286 285 285 284 284 284 284 282 280 279 279 279 278 277 276 275 274 275 281 287 291 291 289 288 287 285 284 283 282 282 282 282 282 282 281 281 280 280 280 280 280 280 280 280 280 280
315 277 272 280 273 267 267 270 273 272 270 269 270 274 280 285 286 283 280 274 265 258 257 260 269 278 285 292 299 305 310 313 315 314 313 311 311 310 308 305 302 299 298 296 294 292 291 286 282 279 276 276 276 275 274 273 275 282 291 294 294 291 290 288 287 286 285 284 284 284 284 285 284 284 284 283 283 282 282 282 282 281 281 281 281 281
326 319 315 305 292 281 276 276 279 281 282 283 283 284 284 284 282 277 271 261 258 262 269 277 284 289 292 295 301 307 311 313 313 313 312 312 312 314 315 314 312 310 310 310 312 313 312 307 302 295 288 285 282 281 281 285 292 297 297 295 293 292 291 289 289 288 288 286 286 286 287 287 287 286 286 286 285 284 284 284 284 283 282 282 282 282
307 303 298 289 282 277 277 277 281 285 288 287 285 282 278 270 264 259 254 255 266 278 290 298 301 300 295 295 300 305 309 311 312 312 312 311 311 314 318 318 317 317 318 322 328 334 337 332 324 318 312 306 300 297 298 300 300 299 296 295 294 293 293 292 292 291 290 289 288 288 287 287 287 287 287 286 286 285 285 285 285 284 283 283 282 282
296 288 280 274 272 272 272 271 273 278 282 279 271 262 254 247 248 253 256 266 280 292 299 302 303 300 295 296 299 303 308 311 312 311 312 311 311 313 318 319 318 318 322 327 333 339 340 336 333 327 322 317 314 312 308 304 300 297 296 295 295 295 295 295 294 292 291 291 290 289 288 287 287 287 286 286 286 285 285 285 285 284 284 283 282 282
292 285 276 269 266 265 261 258 260 265 266 260 252 246 244 245 252 261 271 280 291 302 306 303 297 291 289 294 298 303 308 311 313 312 311 310 310 313 318 320 319 319 323 327 333 337 337 334 331 327 324 321 319 315 309 303 299 298 298 297 297 297 297 296 295 294 293 292 290 289 289 288 288 287 287 286 286 286 285 285 285 284 284 284 283 282
275 266 260 262 263 251 242 244 252 258 254 251 250 252 253 259 267 276 285 291 297 304 307 304 297 291 289 290 295 301 306 310 312 313 311 308 309 313 319 321 321 321 322 326 330 333 331 329 326 324 321 320 317 314 310 305 302 300 300 299 298 298 297 297 296 295 294 292 291 290 289 289 288 288 287 286 286 285 285 285 285 284 284 284 284 284
179 184 188 196 133 324 269 276 282 283 287 282 283 282 282 284 289 291 295 299 303 305 305 301 296 292 294 295 298 302 307 311 313 313 309 305 307 312 319 323 322 320 320 322 325 327 326 324 322 320 319 318 317 315 312 308 304 301 299 298 298 297 297 297 296 295 295 294 292 291 290 290 289 288 287 287 286 285 285 285 284 284 284 284 284 284
148 147 189 226 289 337 328 311 305 304 303 302 301 299 295 295 296 297 298 302 304 305 305 299 295 295 297 298 300 305 310 314 315 314 308 305 305 311 319 324 323 319 317 317 320 322 322 320 318 318 318 318 318 316 312 306 302 299 298 297 297 296 296 297 297 298 297 296 294 293 291 290 289 288 287 286 285 285 284 284 283 283 283 283 283 282
43 11 295 291 296 308 307 306 305 305 305 307 306 303 299 299 297 296 297 299 300 300 299 297 297 299 299 300 303 308 313 316 318 316 309 302 302 309 320 324 321 317 314 315 318 320 320 317 316 317 319 320 319 316 311 304 300 298 297 296 296 296 297 298 299 299 298 298 296 293 290 289 288 287 286 285 284 284 284 284 283 283 283 282 282 282
326 320 314 313 309 306 304 305 305 305 306 307 305 301 300 298 295 293 294 295 297 298 299 301 302 301 301 302 305 309 315 321 323 319 309 296 298 309 319 321 318 315 313 315 318 320 318 317 316 318 320 320 318 314 308 301 297 295 294 294 294 295 297 298 299 299 298 297 295 293 291 290 288 287 286 286 285 285 284 284 284 283 283 283 282 282
320 317 314 312 308 306 304 305 306 306 305 305 303 300 299 297 296 296 296 298 299 300 301 302 302 302 302 304 308 313 319 328 329 321 308 293 296 306 313 317 317 316 314 316 318 318 316 316 317 319 322 321 318 312 305 298 294 292 291 291 293 295 297 298 298 298 298 297 295 294 293 292 291 290 289 288 287 286 286 286 285 285 285 284 283 283
320 316 312 309 308 307 306 305 305 303 299 297 295 294 295 294 294 293 293 294 295 296 298 300 301 302 304 307 310 313 319 326 325 316 305 296 296 303 310 316 319 318 316 316 316 316 315 315 318 321 325 325 321 312 302 294 289 288 288 289 292 294 297 298 298 298 297 297 296 295 295 294 293 292 290 290 289 288 288 288 287 287 287 286 285 284
328 324 322 316 311 307 303 297 295 293 289 289 290 291 291 290 288 287 286 287 290 293 297 298 299 300 302 304 306 309 314 319 318 312 304 299 299 304 310 318 322 321 317 315 314 315 316 316 319 325 331 333 325 309 293 283 280 281 284 288 292 295 298 298 298 298 297 296 296 296 296 296 295 294 293 292 291 291 290 290 289 288 288 288 287 285
308 307 307 304 302 300 298 293 289 285 283 283 286 288 288 287 286 284 283 284 287 291 294 296 297 298 301 301 303 306 311 314 312 307 302 299 300 305 312 319 322 321 319 316 315 316 316 316 319 326 333 338 322 291 275 270 272 278 286 292 296 299 301 301 300 300 299 299 299 299 299 298 298 297 296 295 294 293 292 292 291 290 290 290 288 286
296 295 293 292 291 291 289 285 280 277 278 279 279 280 281 282 281 280 279 281 283 285 286 286 289 294 298 299 301 305 308 307 304 299 297 301 305 310 312 319 322 323 322 318 317 317 317 316 319 324 327 314 281 267 266 270 278 286 293 298 302 304 305 306 306 305 305 305 304 303 301 300 300 299 298 297 296 295 294 294 293 293 292 291 289 287
297 295 291 287 284 281 278 274 272 270 271 274 278 278 274 273 272 272 273 276 277 277 276 278 281 287 292 297 301 304 304 301 298 294 294 308 313 313 314 319 323 326 327 323 321 320 318 316 316 313 296 271 261 263 271 282 291 298 304 307 310 312 313 313 312 311 310 309 307 306 304 303 302 301 300 299 298 297 296 296 296 296 294 292 290 288
306 303 295 285 277 276 275 275 274 273 271 270 270 269 265 265 266 267 269 271 271 270 271 274 278 283 290 298 303 305 303 300 297 299 305 316 316 313 315 318 322 327 332 331 327 322 317 313 306 281 263 269 275 281 289 298 305 310 314 317 318 319 319 318 316 314 311 309 308 308 307 305 304 303 302 301 300 300 299 299 299 297 296 293 291 290
318 318 311 297 285 281 282 282 282 281 277 272 267 264 262 263 265 268 271 272 269 268 269 273 276 278 282 288 295 300 294 297 304 313 317 317 312 309 313 315 319 324 332 336 333 323 317 312 303 282 283 290 295 299 304 309 314 318 320 320 320 319 320 319 316 313 311 310 309 309 309 308 308 307 306 305 304 303 302 301 300 298 296 294 294 293
319 320 316 308 298 294 295 292 291 288 285 278 272 268 266 266 268 270 272 273 272 272 272 272 272 271 268 265 260 259 268 279 293 306 313 310 305 303 307 310 313 317 322 325 317 304 303 302 301 299 301 302 303 306 310 313 315 317 319 318 317 317 318 318 315 313 312 312 311 311 311 311 311 310 310 309 308 306 304 302 300 297 296 295 295 294
314 315 312 306 300 298 298 296 294 292 288 283 276 270 266 265 266 267 268 268 269 270 270 270 270 268 265 262 261 263 267 273 282 292 299 300 300 301 304 306 308 310 313 312 303 291 283 288 296 302 304 304 305 307 310 312 314 316 317 316 315 315 316 316 315 314 314 313 313 313 313 313 313 313 312 311 310 309 307 304 300 297 294 294 294 294
310 310 307 303 299 297 293 291 290 289 286 281 275 269 265 263 264 265 266 265 264 264 265 266 266 267 267 267 267 268 269 272 278 284 290 293 296 299 301 302 303 305 308 307 303 296 289 290 296 303 306 307 306 307 308 311 314 315 315 313 312 312 314 315 316 315 315 315 314 314 314 315 315 314 314 313 312 311 310 307 302 297 293 292 292 292
307 305 302 300 298 295 291 286 283 280 278 275 271 268 268 268 268 270 271 270 269 267 265 264 264 265 267 269 271 272 272 274 278 282 285 288 293 296 298 296 298 301 303 302 301 300 297 296 298 302 306 308 308 308 308 311 314 314 312 310 310 310 312 314 315 315 315 314 314 314 314 315 315 314 314 313 313 311 308 305 300 296 292 291 290 289
303 299 296 296 297 295 293 289 283 279 276 273 270 270 272 274 275 276 277 277 277 275 273 270 267 265 265 268 270 272 274 277 281 283 284 285 288 290 290 289 291 294 295 295 295 296 297 298 299 301 303 305 306 308 309 312 313 312 310 310 310 310 311 312 313 313 313 312 312 311 312 312 312 311 312 311 310 308 304 301 298 297 296 295 292 290
296 292 291 293 296 297 298 297 294 291 288 284 279 278 279 280 281 282 283 284 285 285 284 281 277 273 269 269 270 272 276 280 283 285 285 285 285 284 281 282 284 287 286 286 289 292 294 296 298 299 299 299 300 304 308 311 313 312 310 310 310 310 310 311 312 312 311 310 309 308 309 308 308 308 308 308 307 305 303 302 301 302 302 301 298 294
288 286 287 291 296 302 305 305 304 302 298 294 290 287 285 284 284 285 286 287 288 290 291 290 288 285 282 278 277 277 279 281 283 285 285 285 285 282 279 278 280 281 280 280 282 284 287 289 293 296 297 296 296 298 303 308 310 310 310 310 310 309 309 310 311 310 309 307 306 305 305 304 305 306 306 306 305 304 304 304 305 305 305 303 301 298
279 282 284 287 293 298 301 303 303 301 298 294 292 290 288 286 284 283 282 283 285 287 288 289 289 288 287 285 284 283 283 284 285 286 286 285 284 282 279 277 277 278 279 279 278 277 277 278 282 286 292 295 296 298 300 303 305 306 309 311 310 309 308 310 310 308 306 305 304 303 302 303 304 304 304 303 303 303 302 303 303 304 303 302 301 299
275 278 279 283 287 292 294 295 296 296 294 293 292 291 291 289 286 283 280 280 281 283 286 288 289 290 290 291 291 290 290 291 292 292 290 287 284 282 279 277 277 278 279 278 275 273 271 272 274 278 282 287 291 295 297 298 300 303 306 308 308 307 307 308 307 306 304 303 302 302 303 303 303 302 301 301 301 300 299 300 300 300 300 298 297 296
272 274 276 282 285 287 287 286 287 288 290 292 294 297 298 299 297 295 292 291 293 296 300 304 306 306 304 303 301 300 301 302 302 300 296 291 287 283 281 279 280 280 279 277 275 272 271 271 273 276 278 281 285 289 291 292 295 298 300 300 300 301 303 304 304 304 303 302 302 302 302 302 301 300 299 299 298 297 297 297 297 297 297 295 293 291
269 272 277 282 284 285 286 286 287 288 292 295 299 304 307 309 308 308 310 312 315 319 323 323 321 317 314 312 311 311 312 313 312 309 303 297 290 285 283 282 282 282 281 278 275 272 271 271 272 274 277 279 283 285 287 289 291 293 293 293 296 299 301 301 301 302 302 302 301 301 300 299 298 298 298 297 296 296 296 295 294 293 292 291 289 287
272 275 280 284 285 286 288 289 290 291 294 297 301 305 309 310 311 312 314 315 318 321 324 324 321 317 312 311 312 314 316 317 314 309 303 298 293 288 285 284 284 284 283 279 275 273 274 273 271 271 274 276 278 281 284 287 290 291 290 290 293 296 298 298 300 301 301 300 299 298 298 297 297 297 297 296 295 295 294 293 292 291 288 287 286 285
276 279 282 284 285 287 287 289 292 295 297 300 303 306 310 309 310 312 313 313 315 318 320 322 321 316 310 308 310 313 315 315 313 307 301 298 295 292 289 287 286 284 283 279 276 274 277 276 274 273 274 275 276 277 280 284 287 288 289 289 289 288 287 291 295 298 298 297 296 296 296 296 297 297 296 295 293 293 292 291 291 290 288 287 286 284
277 279 281 281 282 283 288 295 300 302 303 304 306 308 310 311 312 312 311 311 313 315 316 320 318 313 308 309 311 313 314 312 310 308 306 305 303 301 299 296 293 290 285 282 279 276 274 274 276 278 278 276 274 273 276 280 283 285 287 288 287 285 284 287 290 293 293 294 294 294 294 295 296 295 294 293 292 291 290 289 288 288 288 288 286 284
276 279 281 282 286 291 296 302 306 308 308 308 309 309 309 311 313 313 311 311 311 312 312 314 311 306 304 307 310 312 311 309 308 308 309 311 312 311 308 304 300 296 291 287 283 280 276 273 275 278 279 278 276 274 273 276 279 282 285 287 287 287 287 287 288 288 289 290 291 292 294 295 294 292 290 290 290 291 290 288 287 287 287 287 286 284
276 280 283 287 291 295 300 304 308 311 311 311 311 310 309 311 313 312 312 311 310 309 308 307 303 300 299 302 304 305 305 305 305 306 307 308 309 310 309 308 305 301 296 292 288 284 280 277 276 275 275 276 277 277 277 276 277 278 281 284 286 286 286 287 287 288 288 288 288 290 292 293 292 291 289 289 290 291 290 289 287 287 288 287 286 284
279 283 286 291 295 299 303 307 311 313 312 311 311 310 308 310 311 310 309 309 307 306 302 301 299 297 296 296 297 298 299 299 300 301 303 304 305 307 309 309 308 305 300 296 291 287 283 281 278 274 270 268 270 274 277 277 277 277 278 281 283 283 284 285 287 288 288 287 287 288 290 288 287 287 288 289 289 290 290 289 289 289 288 287 286 284
283 286 290 294 299 302 306 310 312 312 310 309 308 308 306 307 307 305 305 304 304 301 297 296 295 295 294 294 295 295 296 295 295 297 299 301 304 306 308 309 309 306 303 298 294 290 287 283 279 275 270 265 264 267 272 275 276 277 277 278 279 280 282 284 287 289 289 289 289 290 290 288 286 285 286 286 287 289 291 292 292 291 289 288 286 285
286 288 291 296 299 302 304 307 308 307 305 304 303 303 303 304 304 303 303 301 299 296 293 291 291 291 291 292 293 294 294 294 293 294 296 299 303 305 305 306 308 308 305 302 299 296 292 289 286 281 274 268 263 263 266 271 275 277 278 277 278 280 281 284 287 290 291 292 292 293 293 292 290 289 289 287 289 291 293 293 292 291 290 289 287 286
286 288 291 295 298 300 301 303 302 301 299 299 300 300 300 300 300 299 298 296 294 291 289 288 287 286 287 289 290 291 291 290 290 291 293 297 300 301 302 303 305 307 306 305 304 302 301 298 296 292 288 278 268 264 264 268 273 278 279 279 280 282 283 285 288 290 292 293 294 295 295 295 294 292 291 290 291 292 292 292 291 290 290 290 289 287